Погода в Чарикаре

Афганистан     35°00′48″N   69°10′11″E
темп.,
°C
ветер,
м/с
пор.,
м/с
влажн.,
%
обл.,
%
осадки,
мм/ч
давл.,
гПа
погр.,
м
10 августа, ср
ср1001:30+18ссз22340 0.0 100528
04:30+17ссз22340 0.0 100619
07:30+24ссз12220 0.0 1006440
10:30+31юв13130 0.0 10021784
13:30+34ссз44110 0.0 9982748
16:30+32ссз87120 0.0 9981394
19:30+23ссз56210 0.0 100293
22:30+20ссз33250 0.0 100343
11 августа, чт
чт1101:30+19ссз22280 0.0 100325
04:30+18сз22302 0.0 100418
07:30+24юв01200 0.0 1004391
10:30+31юв32140 0.0 10011366
13:30+34юв22110 0.0 9982317
16:30+34в43155 0.0 9963288
19:30+24ссз55245 0.1 1001103
22:30+23с342492 0.6 1002101
12 августа, пт
пт1201:30+21ссз2227100 0.0 100424
04:30+19ссз22305 0.0 100519
07:30+24вюв11281 0.0 1006447
10:30+29вюв33325 0.0 10031582
13:30+32вюв65290 0.0 10002044
16:30+30вюв43341 0.0 9991179
19:30+24с33360 0.0 100230
22:30+21ссз32271 0.0 100521
13 августа, сб
сб1301:30+19с22290 0.0 100516
04:30+18с21310 0.0 100517
07:30+24вюв11215 0.0 1005376
10:30+30юв221561 0.0 10021246
13:30+34вюв231178 0.0 9982344
16:30+34св34121 0.0 9962422
19:30+24ссз44212 0.0 100146
22:30+21ссз322543 0.0 100326
14 августа, вс
вс1401:30+22с222599 0.0 100317
04:30+20с112714 0.1 100413
07:30+25ююв112416 0.3 1005377
10:30+29юв113730 0.3 10021545
13:30+33юв432649 0.0 9992371
16:30+32вюв633016 0.0 9981841
19:30+26в234931 0.0 100160
22:30+24ссз2238100 2.1 100375